Regional Weather Roundup
Issued by NWS

Home | Current Version | Previous Version | Graphics & Text | Print | Product List | Glossary On
Versions: 1 2 3 4 5 6 7 8 9 10 11 12 13 14 15 16 17 18 19 20 21 22 23 24 25 26 27 28 29 30 31 32 33 34 35 36 37 38 39 40 41 42 43 44 45 46 47 48 49 50
000
ASUS43 KMPX 260710
RWRMN
WEATHER ROUNDUP FOR MINNESOTA
NATIONAL WEATHER SERVICE TWIN CITIES/CHANHASSEN MN
200 AM CDT FRI AUG 26 2016


NOTE: "FAIR" INDICATES FEW OR NO CLOUDS BELOW 12,000 FEET WITH NO
SIGNIFICANT WEATHER AND/OR OBSTRUCTIONS TO VISIBILITY. N/A MEANS
CURRENT SKY AND/OR WEATHER CONDITIONS ARE NOT AVAILABLE.

MNZ060>063-068>070-260800-
   Twin Cities Metro

CITY           SKY/WX    TMP DP  RH WIND       PRES   REMARKS
TWIN CITIES    FAIR      60  54  80 CALM      30.14R
ST PAUL          N/A     60  54  80 W5        30.14R
CRYSTAL        FAIR      58  52  80 W3        30.13R
BLAINE         FAIR      61  57  88 W3        30.13S
LAKEVILLE      FAIR      55  55 100 W5        30.15R
EDEN PRAIRIE   FAIR      57  53  86 W3        30.14R
LAKEVILLE      FAIR      55  55 100 W5        30.15R
SOUTH ST PAUL  FAIR      59  54  83 CALM      30.14R
LAKE ELMO      FAIR      59  55  88 CALM      30.15R
$$
MNZ001>005-007-008-013>017-022>024-027-028-260800-
   Northwest Minnesota

CITY           SKY/WX    TMP DP  RH WIND       PRES   REMARKS
BEMIDJI        FAIR      51  49  92 SW5       30.11S
HALLOCK        FAIR      48  46  93 SE7       30.06S
ROSEAU         FAIR      48  45  87 CALM      30.07R
WARROAD        FAIR      52  46  82 S5        30.07S
THIEF RVR FALL FAIR      51  47  86 S7        30.09S
CROOKSTON      FAIR      48  46  93 S6        30.09S
FOSSTON        FAIR      46  46 100 S7        30.11S
DETROIT LAKES  FAIR      57  52  82 SW6       30.14S
MOORHEAD       FAIR      54  50  87 SW6       30.13R
PARK RAPIDS    MOCLDY    50  48  93 CALM      30.13R
MAHNOMEN       FAIR      51  49  93 S8        30.11S
$$
MNZ006-009>011-018-025>026-260800-
   North Central Minnesota

CITY           SKY/WX    TMP DP  RH WIND       PRES   REMARKS
BAUDETTE       CLOUDY    51  48  89 CALM      30.07R
FLAG ISLAND    FAIR      61  48  63 CALM      30.05R
INTL FALLS     FAIR      44  43  96 CALM      30.08R
WASKISH        FAIR      50  46  87 CALM      30.09S
BIG FORK       CLOUDY    57  54  88 CALM      30.10S
LONGVILLE      FAIR      48  48 100 CALM      30.12R
GRAND RAPIDS   FAIR      56  52  86 W3        30.13R
CRANE LAKE     FAIR      46  46 100 CALM      30.10R
ORR            CLOUDY    55  52  88 CALM      30.07R
COOK           CLOUDY    55  54  94 CALM      30.09R
WALKER         FAIR      48  47  98 W3        30.12R
$$
MNZ012-019>021-037-260800-
   Northeast Minnesota

CITY           SKY/WX    TMP DP  RH WIND       PRES   REMARKS
DULUTH         MOCLDY    58  54  86 W7        30.09R
ELY            MOCLDY    54  54 100 W5        30.07R
HIBBING        CLOUDY    56  52  86 W3        30.10R
EVELETH        CLOUDY    58  54  86 W6        30.10R
DULUTH HARBOR  CLOUDY    63  55  77 W12       30.09S
TWO HARBORS    CLOUDY    61  55  82 W7        30.06R
SILVER BAY     CLOUDY    57  55  94 W3        30.04R
GRAND MARAIS     N/A     58  54  86 W3        30.01R
G MARAIS ARPRT CLOUDY    54  48  82 NW5       30.05R
$$
MNZ029>031-032-039>041-046>048-054>057-064-260800-
   West Central Minnesota

CITY           SKY/WX    TMP DP  RH WIND       PRES   REMARKS
FERGUS FALLS   FAIR      54  54 100 CALM      30.16F
WHEATON        CLOUDY    55  54  94 SW3       30.16F
MORRIS         FAIR      54  52  94 CALM      30.15F
ALEXANDRIA     FAIR      55  52  89 W6        30.16S
ELBOW LAKE     FAIR      51  51  99 CALM      30.15F
WADENA         MOCLDY    54  52  94 SW6       30.14R
GLENWOOD       FAIR      55  54  94 W7        30.16F
APPLETON       FAIR      54  52  94 CALM      30.15F
BENSON         FAIR      52  48  87 CALM      30.16F
ORTONVILLE     FAIR      55  52  88 CALM      30.16F
MADISON        FAIR      52  50  93 W3        30.16F
WILLMAR        FAIR      55  54  94 CALM      30.17F
$$
MNZ033>034-036-042>043-049>051-058-059-260800-
   Central Minnesota

CITY           SKY/WX    TMP DP  RH WIND       PRES   REMARKS
ST CLOUD       FAIR      56  54  93 NW6       30.14R
SAUK CENTRE    FAIR      53  52  95 CALM      30.16S
PAYNESVILLE    FAIR      53  53 100 W5        30.16S
AITKIN           N/A     55  52  88 SW3       30.11S
PINE RIVER     FAIR      48  48 100 CALM      30.15S
BRAINERD       FAIR      50  50 100 CALM      30.14R
STAPLES        MOCLDY    54  52  94 SW5       30.15R
LONG PRAIRIE   FAIR      52  52 100 S3        30.16R
LITTLE FALLS   FAIR      52  50  93 CALM      30.15R FOG
LITCHFIELD     FAIR      61  55  82 W6        30.16S
BUFFALO        FAIR      58  54  86 W6        30.16R
MAPLE LAKE     FAIR      58  56  92 W5        30.17R
HUTCHINSON     FAIR      53  52  97 SW3       30.17R
$$
MNZ037-044-045-052-053-260800-
   East Central Minnesota

CITY           SKY/WX    TMP DP  RH WIND       PRES   REMARKS
PRINCETON      FAIR      54  54 100 CALM      30.13S FOG
MORA           FAIR      54  52  94 NW3       30.14S
CAMBRIDGE      FAIR      61  52  72 CALM      30.11S
RUSH CITY      MOCLDY    56  54  91 CALM      30.12F
MOOSE LAKE     FAIR      54  52  94 W5        30.09F
HINCKLEY       FAIR      55  54  94 W6        30.12S
CLOQUET        FAIR      55  52  88 W6        30.10S
MCGREGOR       FAIR      54  52  94 W5        30.12F
$$
MNZ071>073-080-081-089-090-097-098-260800-
   Southwest Minnesota

CITY           SKY/WX    TMP DP  RH WIND       PRES   REMARKS
MONTEVIDEO     FAIR      54  52  94 W5        30.18F
GRANITE FALLS  FAIR      52  51  95 SW5       30.18F
CANBY          FAIR      55  51  89 CALM      30.18F
MARSHALL       FAIR      53  51  93 CALM      30.18F
REDWOOD FALLS  FAIR      55  51  86 W5        30.16F
OLIVIA         FAIR      50  48  93 CALM      30.16F
PIPESTONE      FAIR      55  52  88 CALM      30.19S
WINDOM         FAIR      54  52  94 CALM      30.18F
WORTHINGTON    FAIR      53  52  96 CALM      30.19F
JACKSON        FAIR      54  52  94 CALM      30.19S FOG
TRACY          FAIR      57  54  89 SW3       30.18F
SLAYTON        FAIR      52  52 100 CALM      30.19F
$$
MNZ065>067-074>077-082>085-091>093-260800-
   South Central Minnesota

CITY           SKY/WX    TMP DP  RH WIND       PRES   REMARKS
MANKATO        FAIR      57  52  82 W3        30.17R
NEW ULM          N/A     54  52  94 CALM      30.17S
FAIRMONT       FAIR      55  53  93 CALM      30.18R
GLENCOE        FAIR      56  55  97 CALM      30.16R
FARIBAULT      FAIR      55  54  94 W3        30.16S
OWATONNA       FAIR      55  52  88 CALM      30.16S
WASECA         FAIR      55  54  94 CALM      30.18R FOG
ALBERT LEA     FAIR      55  55 100 CALM      30.16S
$$
MNZ078>079-086>088-094>096-260800-
   Southeast Minnesota

CITY           SKY/WX    TMP DP  RH WIND       PRES   REMARKS
ROCHESTER      FAIR      57  55  93 W6        30.15F
RED WING       FAIR      55  54  94 CALM      30.12F
STANTON        FAIR      55  52  88 SW3       30.14S
DODGE CENTER   FAIR      54  52  94 W5        30.15F
WINONA         FAIR      59  55  88 CALM      30.14R
AUSTIN         FAIR      57  55  94 CALM      30.15F
PRESTON        FAIR      56  55  93 NW6       30.16S
$$
ABBREVIATIONS USED IN REMARKS
   TC - TEMPERATURES IN CELSIUS
  WCI - WIND CHILL INDEX
   HX - HEAT INDEX
  VSB - VISIBILITY
$$




USA.gov is the U.S. government's official web portal to all federal, state and local government web resources and services.